| time (UTC) | temp F | wind direction | speed MPH | gust MPH | rain 1hr in | rain 24hr in | rain mn in | humidity % | barometer mb |
| 20260504024105 | 54 | 9 | 16.0 | 18.0 | 0.00 | 0.00 | 0.00 | 43 | 1008.4 |
| 20260504023605 | 54 | 13 | 16.0 | 18.0 | 0.00 | 0.00 | 0.00 | 43 | 1008.3 |
| 20260504023035 | 54 | 2 | 17.0 | 22.0 | 0.00 | 0.00 | 0.00 | 42 | 1008.2 |
| 20260504022505 | 54 | 9 | 17.0 | 22.0 | 0.00 | 0.00 | 0.00 | 41 | 1008.0 |
| 20260504022005 | 55 | 6 | 16.0 | 25.0 | 0.00 | 0.00 | 0.00 | 40 | 1008.1 |
| 20260504021505 | 55 | 5 | 18.0 | 23.0 | 0.00 | 0.00 | 0.00 | 40 | 1007.9 |
| 20260504021005 | 55 | 15 | 18.0 | 25.0 | 0.00 | 0.00 | 0.00 | 39 | 1007.7 |
| 20260504020435 | 56 | 352 | 18.0 | 23.0 | 0.00 | 0.00 | 0.00 | 38 | 1007.8 |
| 20260504015935 | 56 | 355 | 22.0 | 24.0 | 0.00 | 0.00 | 0.00 | 37 | 1007.7 |
| 20260504015405 | 56 | 4 | 17.0 | 22.0 | 0.00 | 0.00 | 0.00 | 38 | 1007.7 |
| 20260504014835 | 56 | 1 | 17.0 | 23.0 | 0.00 | 0.00 | 0.00 | 39 | 1007.5 |
| 20260504014335 | 56 | 4 | 17.0 | 21.0 | 0.00 | 0.00 | 0.00 | 38 | 1007.4 |
| 20260504013835 | 57 | 3 | 22.0 | 26.0 | 0.00 | 0.00 | 0.00 | 37 | 1007.3 |
| 20260504013335 | 57 | 355 | 20.0 | 25.0 | 0.00 | 0.00 | 0.00 | 38 | 1007.2 |
| 20260504012805 | 57 | 2 | 17.0 | 21.0 | 0.00 | 0.00 | 0.00 | 37 | 1007.1 |
| 20260504012235 | 57 | 4 | 20.0 | 22.0 | 0.00 | 0.00 | 0.00 | 36 | 1007.0 |
| 20260504011705 | 57 | 3 | 23.0 | 26.0 | 0.00 | 0.00 | 0.00 | 36 | 1006.9 |
| 20260504011205 | 57 | 5 | 20.0 | 23.0 | 0.00 | 0.00 | 0.00 | 37 | 1006.9 |
| 20260504010705 | 57 | 358 | 22.0 | 24.0 | 0.00 | 0.00 | 0.00 | 38 | 1006.9 |
| 20260504010135 | 57 | 7 | 17.0 | 20.0 | 0.00 | 0.00 | 0.00 | 37 | 1006.7 |
| 20260504005605 | 58 | 0 | 18.0 | 22.0 | 0.00 | 0.00 | 0.00 | 38 | 1006.7 |
| 20260504005035 | 57 | 3 | 22.0 | 25.0 | 0.00 | 0.00 | 0.00 | 36 | 1006.7 |
| 20260504004535 | 58 | 9 | 18.0 | 22.0 | 0.00 | 0.00 | 0.00 | 37 | 1006.7 |
| 20260504004005 | 58 | 12 | 18.0 | 22.0 | 0.00 | 0.00 | 0.00 | 37 | 1006.6 |
| 20260504003505 | 58 | 12 | 16.0 | 24.0 | 0.00 | 0.00 | 0.00 | 36 | 1006.8 |
| 20260504002935 | 58 | 16 | 17.0 | 22.0 | 0.00 | 0.00 | 0.00 | 36 | 1006.7 |
| 20260504002435 | 58 | 11 | 20.0 | 25.0 | 0.00 | 0.00 | 0.00 | 36 | 1006.6 |
| 20260504001905 | 58 | 12 | 17.0 | 28.0 | 0.00 | 0.00 | 0.00 | 36 | 1006.5 |
| 20260504001335 | 58 | 23 | 20.0 | 20.0 | 0.00 | 0.00 | 0.00 | 35 | 1006.3 |
| 20260504000835 | 59 | 14 | 24.0 | 31.0 | 0.00 | 0.00 | 0.00 | 35 | 1006.3 |
| 20260504000305 | 59 | 16 | 16.0 | 26.0 | 0.00 | 0.00 | 0.00 | 36 | 1006.3 |
| 20260503235735 | 59 | 33 | 20.0 | 26.0 | 0.00 | 0.00 | 0.00 | 35 | 1006.0 |
| 20260503235235 | 60 | 31 | 21.0 | 25.0 | 0.00 | 0.00 | 0.00 | 34 | 1006.1 |
| 20260503234735 | 61 | 19 | 21.0 | 28.0 | 0.00 | 0.00 | 0.00 | 34 | 1006.2 |
| 20260503234205 | 61 | 29 | 17.0 | 28.0 | 0.00 | 0.00 | 0.00 | 34 | 1006.2 |
| 20260503233705 | 62 | 24 | 18.0 | 25.0 | 0.00 | 0.00 | 0.00 | 33 | 1006.3 |
| 20260503233135 | 62 | 17 | 18.0 | 26.0 | 0.00 | 0.00 | 0.00 | 33 | 1006.4 |
| 20260503232605 | 62 | 27 | 17.0 | 26.0 | 0.00 | 0.00 | 0.00 | 32 | 1006.3 |
| 20260503232035 | 63 | 16 | 18.0 | 20.0 | 0.00 | 0.00 | 0.00 | 31 | 1006.2 |
| 20260503231535 | 63 | 20 | 15.0 | 20.0 | 0.00 | 0.00 | 0.00 | 31 | 1006.2 |
| 20260503231005 | 64 | 1 | 18.0 | 20.0 | 0.00 | 0.00 | 0.00 | 32 | 1006.0 |
| 20260503230505 | 64 | 346 | 17.0 | 20.0 | 0.00 | 0.00 | 0.00 | 32 | 1005.9 |
| 20260503225935 | 63 | 342 | 15.0 | 20.0 | 0.00 | 0.00 | 0.00 | 31 | 1005.9 |
| 20260503225435 | 63 | 338 | 16.0 | 18.0 | 0.00 | 0.00 | 0.00 | 30 | 1005.8 |
| 20260503224935 | 65 | 353 | 18.0 | 26.0 | 0.00 | 0.00 | 0.00 | 31 | 1005.7 |
| 20260503224435 | 65 | 5 | 21.0 | 23.0 | 0.00 | 0.00 | 0.00 | 30 | 1005.6 |
| 20260503223935 | 65 | 359 | 17.0 | 20.0 | 0.00 | 0.00 | 0.00 | 31 | 1005.7 |
| 20260503223435 | 65 | 353 | 23.0 | 29.0 | 0.00 | 0.00 | 0.00 | 30 | 1005.6 |
| 20260503222905 | 65 | 348 | 15.0 | 21.0 | 0.00 | 0.00 | 0.00 | 31 | 1005.6 |
| 20260503222335 | 65 | 344 | 18.0 | 20.0 | 0.00 | 0.00 | 0.00 | 30 | 1005.6 |
| 20260503221835 | 66 | 352 | 21.0 | 24.0 | 0.00 | 0.00 | 0.00 | 29 | 1005.5 |
| 20260503221305 | 66 | 328 | 17.0 | 22.0 | 0.00 | 0.00 | 0.00 | 29 | 1005.5 |
| 20260503220805 | 66 | 346 | 22.0 | 26.0 | 0.00 | 0.00 | 0.00 | 29 | 1005.4 |
| 20260503220235 | 66 | 344 | 17.0 | 21.0 | 0.00 | 0.00 | 0.00 | 29 | 1005.4 |
| 20260503215705 | 66 | 355 | 20.0 | 26.0 | 0.00 | 0.00 | 0.00 | 29 | 1005.6 |
| 20260503215135 | 66 | 344 | 20.0 | 26.0 | 0.00 | 0.00 | 0.00 | 28 | 1005.6 |
| 20260503214605 | 66 | 339 | 18.0 | 22.0 | 0.00 | 0.00 | 0.00 | 28 | 1005.5 |
| 20260503214105 | 66 | 338 | 21.0 | 24.0 | 0.00 | 0.00 | 0.00 | 28 | 1005.6 |
| 20260503213605 | 66 | 339 | 18.0 | 23.0 | 0.00 | 0.00 | 0.00 | 28 | 1005.5 |
| 20260503213105 | 66 | 347 | 16.0 | 20.0 | 0.00 | 0.00 | 0.00 | 28 | 1005.6 |
| 20260503212535 | 67 | 346 | 15.0 | 20.0 | 0.00 | 0.00 | 0.00 | 27 | 1005.7 |
| 20260503212035 | 66 | 327 | 14.0 | 18.0 | 0.00 | 0.00 | 0.00 | 28 | 1005.7 |
| 20260503211535 | 67 | 334 | 14.0 | 17.0 | 0.00 | 0.00 | 0.00 | 26 | 1005.7 |
| 20260503211006 | 66 | 349 | 14.0 | 21.0 | 0.00 | 0.00 | 0.00 | 29 | 1005.8 |
| 20260503210505 | 66 | 341 | 20.0 | 25.0 | 0.00 | 0.00 | 0.00 | 28 | 1005.9 |
| 20260503210006 | 67 | 329 | 16.0 | 24.0 | 0.00 | 0.00 | 0.00 | 28 | 1005.7 |
| 20260503205505 | 66 | 323 | 20.0 | 20.0 | 0.00 | 0.00 | 0.00 | 29 | 1005.9 |
| 20260503204935 | 67 | 307 | 14.0 | 26.0 | 0.00 | 0.00 | 0.00 | 28 | 1005.8 |
| 20260503204405 | 67 | 299 | 17.0 | 26.0 | 0.00 | 0.00 | 0.00 | 28 | 1005.8 |
| 20260503203836 | 67 | 327 | 17.0 | 21.0 | 0.00 | 0.00 | 0.00 | 29 | 1006.0 |
| 20260503203305 | 66 | 321 | 13.0 | 17.0 | 0.00 | 0.00 | 0.00 | 29 | 1005.9 |
| 20260503202805 | 66 | 329 | 13.0 | 15.0 | 0.00 | 0.00 | 0.00 | 29 | 1006.0 |
| 20260503202306 | 66 | 322 | 16.0 | 21.0 | 0.00 | 0.00 | 0.00 | 29 | 1005.9 |
| 20260503201735 | 66 | 326 | 14.0 | 21.0 | 0.00 | 0.00 | 0.00 | 31 | 1006.0 |
| 20260503201236 | 65 | 314 | 14.0 | 20.0 | 0.00 | 0.00 | 0.00 | 32 | 1005.9 |
| 20260503200736 | 66 | 324 | 14.0 | 21.0 | 0.00 | 0.00 | 0.00 | 31 | 1006.0 |
| 20260503200206 | 66 | 304 | 16.0 | 26.0 | 0.00 | 0.00 | 0.00 | 31 | 1005.9 |
| 20260503195705 | 66 | 318 | 13.0 | 20.0 | 0.00 | 0.00 | 0.00 | 31 | 1005.9 |
| 20260503195206 | 66 | 338 | 17.0 | 23.0 | 0.00 | 0.00 | 0.00 | 31 | 1005.9 |
| 20260503194706 | 65 | 336 | 21.0 | 26.0 | 0.00 | 0.00 | 0.00 | 32 | 1005.7 |
| 20260503194206 | 66 | 336 | 21.0 | 23.0 | 0.00 | 0.00 | 0.00 | 31 | 1005.7 |
| 20260503193636 | 65 | 339 | 22.0 | 26.0 | 0.00 | 0.00 | 0.00 | 33 | 1005.7 |
| 20260503193136 | 66 | 336 | 16.0 | 18.0 | 0.00 | 0.00 | 0.00 | 32 | 1005.8 |
| 20260503192605 | 66 | 335 | 15.0 | 25.0 | 0.00 | 0.00 | 0.00 | 31 | 1005.7 |
| 20260503192036 | 67 | 332 | 14.0 | 23.0 | 0.00 | 0.00 | 0.00 | 31 | 1005.7 |
| 20260503191535 | 67 | 319 | 15.0 | 20.0 | 0.00 | 0.00 | 0.00 | 30 | 1005.7 |
| 20260503191006 | 67 | 333 | 16.0 | 26.0 | 0.00 | 0.00 | 0.00 | 29 | 1005.6 |
| 20260503190506 | 67 | 325 | 20.0 | 24.0 | 0.00 | 0.00 | 0.00 | 29 | 1005.6 |
| 20260503185936 | 68 | 329 | 21.0 | 26.0 | 0.00 | 0.00 | 0.00 | 29 | 1005.6 |
| 20260503185436 | 67 | 329 | 17.0 | 25.0 | 0.00 | 0.00 | 0.00 | 30 | 1005.5 |
| 20260503184936 | 67 | 322 | 15.0 | 23.0 | 0.00 | 0.00 | 0.00 | 30 | 1005.7 |
| 20260503184436 | 67 | 309 | 16.0 | 26.0 | 0.00 | 0.00 | 0.00 | 29 | 1005.7 |
| 20260503183906 | 67 | 324 | 17.0 | 20.0 | 0.00 | 0.00 | 0.00 | 28 | 1005.8 |
| 20260503183336 | 67 | 306 | 14.0 | 20.0 | 0.00 | 0.00 | 0.00 | 30 | 1005.8 |
| 20260503182836 | 66 | 313 | 18.0 | 20.0 | 0.00 | 0.00 | 0.00 | 30 | 1005.8 |
| 20260503182306 | 66 | 301 | 14.0 | 26.0 | 0.00 | 0.00 | 0.00 | 30 | 1005.8 |
| 20260503181806 | 66 | 295 | 20.0 | 28.0 | 0.00 | 0.00 | 0.00 | 29 | 1005.8 |
| 20260503181306 | 66 | 321 | 16.0 | 23.0 | 0.00 | 0.00 | 0.00 | 30 | 1005.9 |
| 20260503180806 | 67 | 306 | 15.0 | 26.0 | 0.00 | 0.00 | 0.00 | 29 | 1006.0 |
| 20260503180236 | 66 | 325 | 16.0 | 22.0 | 0.00 | 0.00 | 0.00 | 29 | 1005.9 |
| 20260503175736 | 66 | 302 | 15.0 | 20.0 | 0.00 | 0.00 | 0.00 | 29 | 1006.1 |
| 20260503175206 | 66 | 315 | 15.0 | 21.0 | 0.00 | 0.00 | 0.00 | 30 | 1006.2 |
| 20260503174706 | 66 | 291 | 26.0 | 36.0 | 0.00 | 0.00 | 0.00 | 30 | 1006.3 |
| 20260503174206 | 66 | 312 | 17.0 | 26.0 | 0.00 | 0.00 | 0.00 | 30 | 1006.3 |
| 20260503173636 | 66 | 313 | 16.0 | 22.0 | 0.00 | 0.00 | 0.00 | 30 | 1006.4 |
| 20260503173136 | 65 | 290 | 21.0 | 28.0 | 0.00 | 0.00 | 0.00 | 31 | 1006.5 |
| 20260503172636 | 65 | 284 | 20.0 | 24.0 | 0.00 | 0.00 | 0.00 | 31 | 1006.5 |
| 20260503172106 | 65 | 280 | 23.0 | 30.0 | 0.00 | 0.00 | 0.00 | 31 | 1006.5 |
| 20260503171536 | 65 | 289 | 18.0 | 26.0 | 0.00 | 0.00 | 0.00 | 31 | 1006.5 |
| 20260503171006 | 65 | 307 | 20.0 | 24.0 | 0.00 | 0.00 | 0.00 | 31 | 1006.6 |
| 20260503170506 | 65 | 296 | 14.0 | 20.0 | 0.00 | 0.00 | 0.00 | 32 | 1006.8 |
| 20260503160206 | 61 | 282 | 15.0 | 18.0 | 0.00 | 0.00 | 0.00 | 36 | 1007.4 |
| 20260503150836 | 58 | 288 | 14.0 | 15.0 | 0.00 | 0.00 | 0.00 | 39 | 1007.8 |
| 20260503150336 | 58 | 293 | 15.0 | 20.0 | 0.00 | 0.00 | 0.00 | 38 | 1007.9 |
| 20260503140136 | 50 | 269 | 12.0 | 17.0 | 0.00 | 0.00 | 0.00 | 50 | 1008.2 |
| 20260503131406 | 47 | 275 | 10.0 | 14.0 | 0.00 | 0.00 | 0.00 | 56 | 1008.1 |
| 20260503130906 | 47 | 271 | 9.0 | 12.0 | 0.00 | 0.00 | 0.00 | 57 | 1008.1 |
| 20260503130336 | 47 | 265 | 9.0 | 10.0 | 0.00 | 0.00 | 0.00 | 57 | 1008.1 |
| 20260503110706 | 44 | 273 | 10.0 | 13.0 | 0.00 | 0.00 | 0.00 | 64 | 1008.7 |
| 20260503110206 | 44 | 267 | 12.0 | 14.0 | 0.00 | 0.00 | 0.00 | 64 | 1008.6 |
| 20260503090206 | 51 | 274 | 12.0 | 14.0 | 0.00 | 0.00 | 0.00 | 57 | 1008.3 |
| 20260503081436 | 53 | 246 | 14.0 | 18.0 | 0.00 | 0.00 | 0.00 | 56 | 1008.3 |
| 20260503080906 | 53 | 234 | 15.0 | 18.0 | 0.00 | 0.00 | 0.00 | 56 | 1008.2 |
| 20260503080336 | 53 | 236 | 12.0 | 14.0 | 0.00 | 0.00 | 0.00 | 56 | 1008.2 |
| 20260503072636 | 52 | 230 | 9.0 | 12.0 | 0.00 | 0.00 | 0.00 | 60 | 1008.7 |
| 20260503072136 | 52 | 236 | 9.0 | 12.0 | 0.00 | 0.00 | 0.00 | 60 | 1008.7 |
| 20260503071606 | 52 | 235 | 8.0 | 12.0 | 0.00 | 0.00 | 0.00 | 60 | 1008.8 |
| 20260503071106 | 51 | 228 | 9.0 | 12.0 | 0.00 | 0.00 | 0.00 | 61 | 1009.0 |
| 20260503070606 | 51 | 223 | 7.0 | 10.0 | 0.00 | 0.00 | 0.00 | 62 | 1009.1 |
| 20260503060306 | 50 | 226 | 7.0 | 8.0 | 0.00 | 0.00 | 0.00 | 63 | 1009.8 |
| 20260503054706 | 49 | 220 | 6.0 | 6.0 | 0.00 | 0.00 | 0.00 | 62 | 1009.8 |
| 20260503054206 | 49 | 216 | 3.0 | 5.0 | 0.00 | 0.00 | 0.00 | 61 | 1009.9 |
| 20260503053636 | 48 | 183 | 2.0 | 3.0 | 0.00 | 0.00 | 0.00 | 63 | 1010.0 |
| 20260503053106 | 48 | 183 | 2.0 | 2.0 | 0.00 | 0.00 | 0.00 | 63 | 1010.0 |
| 20260503052606 | 47 | 173 | 3.0 | 5.0 | 0.00 | 0.00 | 0.00 | 65 | 1010.1 |
| 20260503052036 | 47 | 168 | 3.0 | 5.0 | 0.00 | 0.00 | 0.00 | 64 | 1010.1 |
| 20260503051536 | 48 | 166 | 3.0 | 3.0 | 0.00 | 0.00 | 0.00 | 64 | 1010.1 |
| 20260503051036 | 48 | 169 | 3.0 | 5.0 | 0.00 | 0.00 | 0.00 | 62 | 1010.1 |
| 20260503050536 | 48 | 168 | 5.0 | 5.0 | 0.00 | 0.00 | 0.00 | 63 | 1010.2 |
| 20260503050006 | 47 | 170 | 3.0 | 5.0 | 0.00 | 0.00 | 0.00 | 65 | 1010.3 |
| 20260503045506 | 47 | 171 | 1.0 | 3.0 | 0.00 | 0.00 | 0.00 | 65 | 1010.3 |
| 20260503045006 | 47 | 171 | 3.0 | 3.0 | 0.00 | 0.00 | 0.00 | 64 | 1010.3 |
| 20260503044506 | 48 | 143 | 7.0 | 9.0 | 0.00 | 0.00 | 0.00 | 62 | 1010.5 |
| 20260503044006 | 48 | 198 | 2.0 | 3.0 | 0.00 | 0.00 | 0.00 | 60 | 1010.4 |
| 20260503043436 | 47 | 184 | 2.0 | 3.0 | 0.00 | 0.00 | 0.00 | 63 | 1010.4 |
| 20260503042906 | 47 | 173 | 2.0 | 5.0 | 0.00 | 0.00 | 0.00 | 65 | 1010.4 |
| 20260503042336 | 48 | 158 | 3.0 | 6.0 | 0.00 | 0.00 | 0.00 | 62 | 1010.4 |
| 20260503041806 | 48 | 208 | 6.0 | 7.0 | 0.00 | 0.00 | 0.00 | 62 | 1010.3 |
| 20260503041236 | 49 | 174 | 1.0 | 3.0 | 0.00 | 0.00 | 0.00 | 60 | 1010.3 |
| 20260503040706 | 50 | 227 | 5.0 | 6.0 | 0.00 | 0.00 | 0.00 | 61 | 1010.2 |
| 20260503040136 | 50 | 222 | 7.0 | 9.0 | 0.00 | 0.00 | 0.00 | 61 | 1010.2 |
| 20260503035606 | 50 | 223 | 7.0 | 8.0 | 0.00 | 0.00 | 0.00 | 60 | 1010.3 |
| 20260503035106 | 51 | 229 | 6.0 | 7.0 | 0.00 | 0.00 | 0.00 | 59 | 1010.3 |
| 20260503034536 | 51 | 232 | 7.0 | 9.0 | 0.00 | 0.00 | 0.00 | 57 | 1010.3 |
| 20260503034036 | 51 | 232 | 6.0 | 8.0 | 0.00 | 0.00 | 0.00 | 58 | 1010.3 |
| 20260503033536 | 51 | 234 | 7.0 | 9.0 | 0.00 | 0.00 | 0.00 | 57 | 1010.4 |
| 20260503033006 | 52 | 233 | 6.0 | 8.0 | 0.00 | 0.00 | 0.00 | 56 | 1010.4 |
| 20260503032506 | 52 | 235 | 6.0 | 7.0 | 0.00 | 0.00 | 0.00 | 55 | 1010.3 |
| 20260503032006 | 53 | 233 | 6.0 | 7.0 | 0.00 | 0.00 | 0.00 | 55 | 1010.3 |
| 20260503031436 | 53 | 233 | 6.0 | 7.0 | 0.00 | 0.00 | 0.00 | 53 | 1010.2 |
| 20260503030906 | 54 | 226 | 6.0 | 7.0 | 0.00 | 0.00 | 0.00 | 52 | 1010.3 |
| 20260503030406 | 54 | 232 | 5.0 | 6.0 | 0.00 | 0.00 | 0.00 | 53 | 1010.2 |
| 20260503025836 | 56 | 218 | 7.0 | 7.0 | 0.00 | 0.00 | 0.00 | 48 | 1010.2 |
| 20260503025336 | 57 | 224 | 5.0 | 7.0 | 0.00 | 0.00 | 0.00 | 46 | 1010.2 |
| 20260503024806 | 57 | 224 | 5.0 | 6.0 | 0.00 | 0.00 | 0.00 | 46 | 1010.2 |